| time (UTC) | temp F | wind direction | speed MPH | gust MPH | rain 1hr in | rain 24hr in | rain mn in | humidity % | barometer mb |
| 20260507070010 | 55 | 245 | 0.0 | 3.0 | 0.00 | 0.09 | 0.00 | 86 | 1005.9 |
| 20260507064504 | 56 | 312 | 2.0 | 4.0 | 0.00 | 0.09 | 0.00 | 85 | 1006.1 |
| 20260507063100 | 56 | 287 | 2.0 | 4.0 | 0.00 | 0.09 | 0.00 | 85 | 1006.1 |
| 20260507061559 | 57 | 301 | 0.0 | 3.0 | 0.00 | 0.09 | 0.00 | 86 | 1005.9 |
| 20260507060106 | 57 | 282 | 2.0 | 6.0 | 0.00 | 0.09 | 0.00 | 86 | 1006.1 |
| 20260507054558 | 58 | 276 | 0.0 | 7.0 | 0.00 | 0.09 | 0.00 | 86 | 1006.2 |
| 20260507053055 | 58 | 329 | 1.0 | 7.0 | 0.00 | 0.09 | 0.00 | 87 | 1006.3 |
| 20260507051552 | 58 | 272 | 1.0 | 4.0 | 0.00 | 0.09 | 0.00 | 87 | 1006.0 |
| 20260507050049 | 59 | 250 | 3.0 | 8.0 | 0.00 | 0.09 | 0.00 | 88 | 1006.1 |
| 20260507044547 | 59 | 256 | 0.0 | 4.0 | 0.00 | 0.09 | 0.00 | 90 | 1005.9 |
| 20260507043043 | 60 | 305 | 1.0 | 7.0 | 0.00 | 0.09 | 0.00 | 92 | 1005.8 |
| 20260507041539 | 60 | 266 | 0.0 | 4.0 | 0.00 | 0.09 | 0.00 | 93 | 1005.9 |
| 20260507040035 | 59 | 285 | 0.0 | 3.0 | 0.00 | 0.09 | 0.00 | 93 | 1006.2 |
| 20260507034550 | 59 | 253 | 2.0 | 5.0 | 0.00 | 0.09 | 0.09 | 93 | 1006.0 |
| 20260507033038 | 60 | 295 | 0.0 | 5.0 | 0.00 | 0.09 | 0.09 | 93 | 1005.9 |
| 20260507031532 | 60 | 221 | 2.0 | 4.0 | 0.00 | 0.09 | 0.09 | 92 | 1005.7 |
| 20260507030035 | 59 | 263 | 2.0 | 5.0 | 0.00 | 0.09 | 0.09 | 92 | 1005.5 |
| 20260507024548 | 59 | 287 | 1.0 | 8.0 | 0.00 | 0.09 | 0.09 | 93 | 1005.5 |
| 20260507023030 | 59 | 239 | 0.0 | 5.0 | 0.00 | 0.09 | 0.09 | 93 | 1005.7 |
| 20260507021529 | 59 | 197 | 1.0 | 5.0 | 0.00 | 0.09 | 0.09 | 93 | 1005.6 |
| 20260507020029 | 59 | 228 | 1.0 | 5.0 | 0.00 | 0.09 | 0.09 | 93 | 1005.6 |
| 20260507014538 | 59 | 226 | 1.0 | 6.0 | 0.00 | 0.09 | 0.09 | 93 | 1005.6 |
| 20260507013028 | 58 | 155 | 1.0 | 11.0 | 0.00 | 0.09 | 0.09 | 93 | 1005.8 |
| 20260507011538 | 58 | 124 | 2.0 | 7.0 | 0.00 | 0.09 | 0.09 | 93 | 1006.0 |
| 20260507010027 | 58 | 269 | 2.0 | 6.0 | 0.00 | 0.09 | 0.09 | 93 | 1006.1 |
| 20260507004526 | 58 | 288 | 1.0 | 7.0 | 0.00 | 0.09 | 0.09 | 93 | 1006.1 |
| 20260507003025 | 58 | 211 | 2.0 | 10.0 | 0.01 | 0.09 | 0.09 | 93 | 1006.0 |
| 20260507001527 | 58 | 214 | 1.0 | 11.0 | 0.02 | 0.09 | 0.09 | 93 | 1005.9 |
| 20260507000024 | 58 | 242 | 1.0 | 8.0 | 0.03 | 0.09 | 0.09 | 93 | 1005.6 |
| 20260506234522 | 58 | 214 | 2.0 | 8.0 | 0.02 | 0.08 | 0.08 | 93 | 1005.8 |
| 20260506233021 | 59 | 225 | 1.0 | 8.0 | 0.02 | 0.08 | 0.08 | 93 | 1005.7 |
| 20260506231521 | 59 | 256 | 3.0 | 10.0 | 0.01 | 0.07 | 0.07 | 92 | 1005.7 |
| 20260506230017 | 59 | 179 | 1.0 | 8.0 | 0.00 | 0.06 | 0.06 | 92 | 1005.7 |
| 20260506224516 | 60 | 255 | 1.0 | 6.0 | 0.01 | 0.06 | 0.06 | 92 | 1005.7 |
| 20260506223012 | 60 | 170 | 2.0 | 7.0 | 0.02 | 0.06 | 0.06 | 92 | 1005.9 |
| 20260506221511 | 60 | 132 | 1.0 | 11.0 | 0.02 | 0.06 | 0.06 | 92 | 1006.1 |
| 20260506220010 | 61 | 160 | 1.0 | 6.0 | 0.02 | 0.06 | 0.06 | 91 | 1006.1 |
| 20260506214515 | 61 | 189 | 4.0 | 11.0 | 0.02 | 0.05 | 0.05 | 89 | 1006.4 |
| 20260506213009 | 62 | 255 | 4.0 | 14.0 | 0.01 | 0.04 | 0.04 | 87 | 1006.5 |
| 20260506211505 | 62 | 232 | 3.0 | 9.0 | 0.01 | 0.04 | 0.04 | 86 | 1006.5 |
| 20260506210004 | 62 | 307 | 2.0 | 12.0 | 0.01 | 0.04 | 0.04 | 86 | 1006.5 |
| 20260506204504 | 62 | 194 | 3.0 | 14.0 | 0.01 | 0.03 | 0.03 | 85 | 1006.7 |
| 20260506203008 | 62 | 214 | 2.0 | 12.0 | 0.02 | 0.03 | 0.03 | 83 | 1006.7 |
| 20260506201502 | 63 | 149 | 4.0 | 13.0 | 0.03 | 0.03 | 0.03 | 82 | 1006.6 |
| 20260506200001 | 63 | 257 | 2.0 | 6.0 | 0.03 | 0.03 | 0.03 | 81 | 1006.4 |
| 20260506194559 | 64 | 219 | 2.0 | 8.0 | 0.02 | 0.02 | 0.02 | 80 | 1006.7 |
| 20260506193058 | 65 | 130 | 1.0 | 8.0 | 0.01 | 0.01 | 0.01 | 76 | 1006.9 |
| 20260506191559 | 66 | 79 | 2.0 | 12.0 | 0.00 | 0.00 | 0.00 | 73 | 1006.8 |
| 20260506190059 | 68 | 308 | 3.0 | 11.0 | 0.00 | 0.00 | 0.00 | 67 | 1006.7 |
| 20260506184556 | 69 | 266 | 3.0 | 9.0 | 0.00 | 0.00 | 0.00 | 63 | 1006.7 |
| 20260506183057 | 70 | 283 | 4.0 | 17.0 | 0.00 | 0.00 | 0.00 | 61 | 1006.8 |
| 20260506181555 | 71 | 259 | 4.0 | 14.0 | 0.00 | 0.00 | 0.00 | 59 | 1007.0 |
| 20260506180052 | 72 | 319 | 4.0 | 12.0 | 0.00 | 0.00 | 0.00 | 58 | 1007.0 |
| 20260506174557 | 72 | 242 | 4.0 | 13.0 | 0.00 | 0.00 | 0.00 | 58 | 1007.3 |
| 20260506173102 | 72 | 270 | 3.0 | 9.0 | 0.00 | 0.00 | 0.00 | 59 | 1007.4 |
| 20260506171550 | 72 | 136 | 5.0 | 12.0 | 0.00 | 0.00 | 0.00 | 60 | 1007.3 |
| 20260506170048 | 71 | 231 | 5.0 | 13.0 | 0.00 | 0.00 | 0.00 | 60 | 1007.5 |
| 20260506164545 | 72 | 300 | 4.0 | 14.0 | 0.00 | 0.00 | 0.00 | 59 | 1007.8 |
| 20260506163049 | 72 | 197 | 4.0 | 10.0 | 0.00 | 0.00 | 0.00 | 60 | 1007.8 |
| 20260506161541 | 72 | 179 | 3.0 | 12.0 | 0.00 | 0.00 | 0.00 | 59 | 1008.1 |
| 20260506160040 | 72 | 215 | 4.0 | 16.0 | 0.00 | 0.00 | 0.00 | 59 | 1008.3 |
| 20260506154539 | 72 | 257 | 3.0 | 16.0 | 0.00 | 0.00 | 0.00 | 59 | 1008.6 |
| 20260506153042 | 73 | 225 | 3.0 | 10.0 | 0.00 | 0.00 | 0.00 | 58 | 1008.8 |
| 20260506151534 | 72 | 287 | 4.0 | 14.0 | 0.00 | 0.00 | 0.00 | 58 | 1008.9 |
| 20260506150038 | 72 | 166 | 5.0 | 16.0 | 0.00 | 0.00 | 0.00 | 58 | 1009.1 |
| 20260506144549 | 71 | 266 | 3.0 | 11.0 | 0.00 | 0.00 | 0.00 | 61 | 1009.0 |
| 20260506143027 | 71 | 165 | 4.0 | 8.0 | 0.00 | 0.00 | 0.00 | 62 | 1008.9 |
| 20260506141525 | 70 | 186 | 2.0 | 7.0 | 0.00 | 0.00 | 0.00 | 64 | 1008.9 |
| 20260506140033 | 68 | 196 | 4.0 | 12.0 | 0.00 | 0.00 | 0.00 | 67 | 1009.0 |
| 20260506134516 | 67 | 231 | 3.0 | 10.0 | 0.00 | 0.00 | 0.00 | 69 | 1009.0 |
| 20260506133016 | 66 | 220 | 3.0 | 10.0 | 0.00 | 0.00 | 0.00 | 71 | 1009.7 |
| 20260506131512 | 66 | 220 | 2.0 | 14.0 | 0.00 | 0.00 | 0.00 | 72 | 1009.6 |
| 20260506130010 | 66 | 193 | 2.0 | 8.0 | 0.00 | 0.00 | 0.00 | 72 | 1009.5 |
| 20260506124506 | 65 | 53 | 5.0 | 10.0 | 0.00 | 0.00 | 0.00 | 74 | 1009.6 |
| 20260506123004 | 63 | 253 | 3.0 | 9.0 | 0.00 | 0.00 | 0.00 | 77 | 1009.9 |
| 20260506121503 | 63 | 245 | 1.0 | 7.0 | 0.00 | 0.00 | 0.00 | 78 | 1009.6 |
| 20260506120003 | 62 | 215 | 2.0 | 8.0 | 0.00 | 0.00 | 0.00 | 80 | 1010.0 |
| 20260506114502 | 61 | 290 | 2.0 | 7.0 | 0.00 | 0.00 | 0.00 | 80 | 1009.9 |
| 20260506113002 | 61 | 114 | 2.0 | 10.0 | 0.00 | 0.00 | 0.00 | 80 | 1010.3 |
| 20260506111600 | 61 | 252 | 5.0 | 8.0 | 0.00 | 0.00 | 0.00 | 80 | 1010.2 |
| 20260506104606 | 60 | 236 | 2.0 | 7.0 | 0.00 | 0.00 | 0.00 | 82 | 1010.0 |
| 20260506103106 | 60 | 179 | 1.0 | 9.0 | 0.00 | 0.00 | 0.00 | 82 | 1010.2 |
| 20260506101556 | 60 | 179 | 2.0 | 7.0 | 0.00 | 0.00 | 0.00 | 82 | 1010.0 |
| 20260506100107 | 60 | 221 | 2.0 | 7.0 | 0.00 | 0.00 | 0.00 | 82 | 1010.0 |
| 20260506094602 | 60 | 198 | 1.0 | 7.0 | 0.00 | 0.00 | 0.00 | 82 | 1009.8 |
| 20260506093053 | 60 | 195 | 2.0 | 6.0 | 0.00 | 0.00 | 0.00 | 82 | 1010.0 |
| 20260506091551 | 60 | 248 | 1.0 | 8.0 | 0.00 | 0.00 | 0.00 | 81 | 1009.8 |
| 20260506090049 | 61 | 222 | 1.0 | 9.0 | 0.00 | 0.00 | 0.00 | 80 | 1009.8 |
| 20260506084552 | 61 | 180 | 2.0 | 10.0 | 0.00 | 0.00 | 0.00 | 79 | 1009.8 |